Hourly Data Report for July 22, 2017

PITT MEADOWS CS
BRITISH COLUMBIA

49°12'29.964" N
122°41'24.076" W
5.00 m
1106178
71775
WMM

Download Data

Hourly Data (July 2017)
Hourly Data Report for July 22, 2017
TIME
LST
Temp Definition
°C
Dew Point Definition
°C
Rel Hum Definition
%
Precip. Amount Definition
mm

Wind Dir Definition
10's deg

Wind Spd Definition
km/h
Visibility Definition
km
Stn Press Definition
kPa
Hmdx Definition


Wind Chill Definition


Weather Definition


00:00 18.3 12.6 69 0.0 36 6   101.99     LegendNANA
01:00 18.1 12.6 70 0.0 7 4   102.00     LegendNANA
02:00 16.0 13.7 86 0.3 32 6   102.08     LegendNANA
03:00 15.0 13.4 90 0.4 1 19   102.04     LegendNANA
04:00 15.1 13.4 89 0.2 2 11   102.10     LegendNANA
05:00 15.0 13.7 92 0.3 2 12   102.13     LegendNANA
06:00 15.0 14.1 94 0.1 3 7   102.19     LegendNANA
07:00 15.3 14.4 94 0.1 2 10   102.24     LegendNANA
08:00 15.5 14.3 93 0.0 2 9   102.25     LegendNANA
09:00 16.4 14.4 88 0.0 1 10   102.24     LegendNANA
10:00 16.4 14.6 89 0.0 2 9   102.25     LegendNANA
11:00 17.4 14.6 83 0.0 2 13   102.27     LegendNANA
12:00 18.2 14.9 81 0.0 1 11   102.26     LegendNANA
13:00 18.6 14.9 79 0.0 1 13   102.24     LegendNANA
14:00 19.4 15.2 77 0.0 1 7   102.19     LegendNANA
15:00 19.8 15.2 75 0.0 34 6   102.15     LegendNANA
16:00 19.6 14.8 74 0.0 35 9   102.09     LegendNANA
17:00 19.6 15.0 75 0.0 1 12   102.02     LegendNANA
18:00 19.5 14.9 75 0.0 1 11   101.97     LegendNANA
19:00 19.5 15.4 77 0.0 1 8   101.94     LegendNANA
20:00 18.7 15.2 80 0.0 36 5   101.91     LegendNANA
21:00 18.0 15.2 84 0.0   0   101.92     LegendNANA
22:00 18.1 15.3 84 0.0 1 2   101.89     LegendNANA
23:00 17.2 15.0 87 0.0 30 1   101.88     LegendNANA

Notes on Data Quality.

Legend

  • E = Estimated
  • M = Missing
  • NA = Not Available*
  • [empty] = Indicates an unobserved value
Date modified: